This demonstration page uses our WeatherBlox Daily Observations layout. Learn more.

Left ArrowRight Arrow

Hourly Observations for January 20, 2022

Temp ( °F °C ) Dew Point ( °F °C ) Humidity (%) Winds ( mph kmh ) Pressure ( in mb ) Visibility ( mi km ) Precip ( " mm )
12:52 am 00:52 Clear 3 -16.1 -4 -20 72 72 N 10 17 30.74 1041 10 16 0.00 0.00
1:52 am 01:52 Clear 2 -16.7 -5 -20.6 72 72 N 8 13 30.74 1041 10 16 0.00 0.00
2:52 am 02:52 Clear 1 -17.2 -5 -20.6 75 75 N 9 15 30.75 1041 10 16 0.00 0.00
3:52 am 03:52 Clear 1 -17.2 -6 -21.1 72 72 N 9 15 30.75 1041 10 16 0.00 0.00
4:52 am 04:52 Clear 0 -17.8 -6 -21.1 76 76 N 7 11 30.76 1042 10 16 0.00 0.00
5:52 am 05:52 Clear 0 -17.8 -6 -21.1 76 76 N 7 11 30.77 1042 10 16 0.00 0.00
6:52 am 06:52 Clear -1 -18.3 -7 -21.7 75 75 NNW 8 13 30.79 1043 10 16 0.00 0.00
7:52 am 07:52 Sunny -2 -18.9 -8 -22.2 75 75 N 5 7 30.80 1043 10 16 0.00 0.00
8:52 am 08:52 Sunny 1 -17.2 -6 -21.1 72 72 NNE 5 7 30.80 1043 10 16 0.00 0.00
9:52 am 09:52 Sunny 3 -16.1 -5 -20.6 69 69 N 7 11 30.81 1043 10 16 0.00 0.00
10:52 am 10:52 Sunny 5 -15 -5 -20.6 63 63 NNW 6 9 30.82 1044 10 16 0.00 0.00
11:52 am 11:52 Sunny 9 -12.8 -3 -19.4 58 58 N 3 6 30.79 1043 10 16 0.00 0.00
12:52 pm 12:52 Sunny 9 -12.8 -3 -19.4 58 58 Calm 30.75 1041 10 16 0.00 0.00
1:52 pm 13:52 Sunny 12 -11.1 -3 -19.4 51 51 Calm 30.71 1040 10 16 0.00 0.00
2:52 pm 14:52 Sunny 15 -9.4 -2 -18.9 46 46 Calm 30.70 1040 10 16 0.00 0.00
3:52 pm 15:52 Sunny 15 -9.4 -2 -18.9 46 46 Calm 30.68 1039 10 16 0.00 0.00
4:52 pm 16:52 Sunny 14 -10 -4 -20 44 44 Calm 30.67 1039 10 16 0.00 0.00
5:52 pm 17:52 Clear 11 -11.7 -2 -18.9 55 55 ESE 8 13 30.66 1038 10 16 0.00 0.00
6:52 pm 18:52 Clear 9 -12.8 -2 -18.9 61 61 ESE 5 7 30.66 1038 10 16 0.00 0.00
7:52 pm 19:52 Clear 7 -13.9 -3 -19.4 63 63 SE 6 9 30.66 1038 10 16 0.00 0.00
8:52 pm 20:52 Clear 5 -15 -4 -20 66 66 SE 6 9 30.64 1038 10 16 0.00 0.00
9:52 pm 21:52 Clear 5 -15 -4 -20 66 66 SE 6 9 30.62 1037 10 16 0.00 0.00
10:52 pm 22:52 Clear 5 -15 -3 -19.4 69 69 SSE 9 15 30.62 1037 10 16 0.00 0.00
11:52 pm 23:52 Clear 3 -16.1 -4 -20 72 72 SSE 8 13 30.60 1036 10 16 0.00 0.00

Powered by AerisWeather